Kugluktuk,

10:21 AM MST on December 15, 2017 (GMT -0700)
Kugluktuk

Weather History for CYCO - March, 2013

Change the Weather History Date:

Sunday, March 3, 2013

  Actual Average Record
Temperature  
Mean Temperature -20 °F -  
Max Temperature -15 °F -3 °F 10 °F (2006)
Min Temperature -26 °F -16 °F -36 °F (2004)
Degree Days  
Heating Degree Days 86    
Moisture  
Dew Point -28 °F    
Average Humidity 72    
Maximum Humidity 76    
Minimum Humidity 57    
Precipitation  
Precipitation 0.00 in - - ()
Sea Level Pressure  
Sea Level Pressure 30.64 in    
Wind  
Wind Speed 1 mph ()    
Max Wind Speed 6 mph    
Max Gust Speed -    
Visibility 15.0 miles    
Events      
Averages and records for this station are not official NWS values.
T = Trace of Precipitation, MM = Missing Value Source: Averaged Metar Reports

Daily Weather History Graph

Daily Weather History Graph

Search for Another Location

Airport or City:

Trip Planner

Search our weather history database for the weather conditions in past years. The results will help you decide how hot, cold, wet, or windy it might be!

Date:

Astronomy

Mar. 03, 2013 Rise Set
Actual Time 7:49 AM MST 5:57 PM MST
Civil Twilight 6:53 AM MST 6:52 PM MST
Nautical Twilight 5:50 AM MST 7:57 PM MST
Astronomical Twilight 4:42 AM MST 9:05 PM MST
Moon 2:59 AM MST (3/3) 7:43 AM MST (3/3)
Length of Visible Light 11h 59m
Length of Day
10h 08m
Waning Gibbous, 63% of the Moon is Illuminated
Mar 3
Waning Gibbous
Mar 4
Last Quarter
Mar 11
New
Mar 19
First Quarter
Mar 27
Full

Hourly Weather History & Observations

Time (MST) Temp. Windchill Dew Point Humidity Pressure Visibility Wind Dir Wind Speed Gust Speed Precip Events Conditions
12:00 AM -18.4 °F - -23.8 °F 76% 30.53 in 15.0 mi Calm Calm - N/A   Scattered Clouds
1:00 AM -20.2 °F - -25.6 °F 76% 30.55 in 15.0 mi Calm Calm - N/A   Partly Cloudy
2:00 AM -23.8 °F -35.0 °F -29.2 °F 76% 30.56 in 15.0 mi SE 3.5 mph - N/A   Partly Cloudy
3:00 AM -23.8 °F -35.0 °F -29.2 °F 76% 30.57 in 15.0 mi South 3.5 mph - N/A   Partly Cloudy
4:00 AM -23.8 °F -37.7 °F -29.2 °F 76% 30.58 in 15.0 mi SW 4.6 mph - N/A   Partly Cloudy
5:00 AM -23 °F - -29 °F 60% 30.60 in 15 mi Calm Calm - -   Scattered Clouds
5:00 AM -23.8 °F - -29.2 °F 76% 30.60 in 15.0 mi Calm Calm - N/A   Partly Cloudy
6:00 AM -22.0 °F -35.6 °F -27.4 °F 76% 30.61 in 15.0 mi WNW 4.6 mph - N/A   Scattered Clouds
7:00 AM -22.0 °F -33.0 °F -27.4 °F 76% 30.62 in 15.0 mi WNW 3.5 mph - N/A   Scattered Clouds
8:00 AM -23.8 °F - -29.2 °F 76% 30.63 in 15.0 mi Calm Calm - N/A   Scattered Clouds
9:00 AM -23.8 °F - -31.0 °F 69% 30.63 in 15.0 mi Calm Calm - N/A   Mostly Cloudy
10:00 AM -23.8 °F - -29.2 °F 76% 30.64 in 15.0 mi Calm Calm - N/A   Overcast
11:00 AM -21 °F - -26 °F 62% 30.65 in 15 mi Calm Calm - -   Scattered Clouds
11:00 AM -20.2 °F - -25.6 °F 76% 30.65 in 15.0 mi Calm Calm - N/A   Mostly Cloudy
12:00 PM -18.4 °F - -23.8 °F 76% 30.66 in 15.0 mi Calm Calm - N/A   Mostly Cloudy
1:00 PM -18.4 °F - -27.4 °F 63% 30.67 in 15.0 mi Calm Calm - N/A   Scattered Clouds
2:00 PM -20.2 °F - -27.4 °F 69% 30.67 in 15.0 mi Calm Calm - N/A   Mostly Cloudy
3:00 PM -18.4 °F -33.4 °F -23.8 °F 76% 30.68 in 15.0 mi West 5.8 mph - N/A   Mostly Cloudy
4:00 PM -20.2 °F -30.9 °F -29.2 °F 63% 30.68 in 15.0 mi WSW 3.5 mph - N/A   Scattered Clouds
5:00 PM -21 °F - -27 °F 61% 30.69 in 15 mi Calm Calm - -   Scattered Clouds
6:00 PM -20.2 °F - -25.6 °F 76% 30.69 in 15.0 mi Calm Calm - N/A   Partly Cloudy
7:00 PM -22.0 °F - -27.4 °F 76% 30.70 in 15.0 mi Calm Calm - N/A   Partly Cloudy
8:00 PM -22.0 °F - -27.4 °F 76% 30.70 in 15.0 mi Calm Calm - N/A   Partly Cloudy
9:00 PM -23.8 °F - -29.2 °F 76% 30.70 in 15.0 mi Calm Calm - N/A   Clear
10:00 PM -23.8 °F - -31.0 °F 69% 30.71 in 15.0 mi Calm Calm - N/A   Clear
11:00 PM -26 °F - -32 °F 57% 30.71 in 15 mi South 3.5 mph - -  
11:00 PM -25.6 °F -37.1 °F -32.8 °F 69% 30.71 in 15.0 mi South 3.5 mph - N/A   Clear